UAE35Q EDDM-OMDB

Flight info

Callsign UAE35Q
Flight time N/A
Altitude 33000
Route VAVOR3S/26L VAVOR M867 RADIZ DCT PESUT DCT PALEZ DCT NERRA DCT KOFER DCT PINDO DCT KEA UN132 KUPIS DCT LAPSO DCT GUDIS/N0480F350 DCT KAVOS DCT EVORA DCT LAKTO L560 SERMA L550 KARIK B411 DEESA Y415 NIMAR G662 KSA M321 RESAL T533 RAPMA DCT KUVSO DCT RIBOT M550 GOLGU DCT UKRAG G783 ASPED Q308 KIPOK Q568 IMPED
Aircraft B77W/H-SDE1E2E3FGHIJ2J3J4J5M1RWXY/LB1D1

Departure

Time 2026-05-07 19:19
Airport Munich Airport (EDDM)

Arrival

Time N/A
Airport Dubai International Airport (OMDB)
Time Latitude Longitude Altitude Speed Heading
2026-05-07 18:12 48.35319 11.78303 1481 ft 0 kts 83°
2026-05-07 19:04 48.35319 11.78295 1475 ft 3 kts 83°
2026-05-07 19:04 48.35317 11.78265 1482 ft 3 kts 83°
2026-05-07 19:04 48.35315 11.78239 1475 ft 3 kts 82°
2026-05-07 19:04 48.35310 11.78210 1475 ft 3 kts 65°
2026-05-07 19:05 48.35300 11.78186 1475 ft 3 kts 38°
2026-05-07 19:05 48.35284 11.78173 1475 ft 3 kts
2026-05-07 19:05 48.35265 11.78175 1475 ft 3 kts 353°
2026-05-07 19:05 48.35245 11.78179 1475 ft 2 kts 353°
2026-05-07 19:06 48.35244 11.78179 1475 ft 0 kts 353°
2026-05-07 19:10 48.35245 11.78179 1490 ft 2 kts 353°
2026-05-07 19:10 48.35285 11.78172 1480 ft 7 kts 353°
2026-05-07 19:10 48.35331 11.78155 1476 ft 7 kts 328°
2026-05-07 19:10 48.35348 11.78091 1479 ft 7 kts 275°
2026-05-07 19:11 48.35345 11.78019 1480 ft 7 kts 265°
2026-05-07 19:11 48.35340 11.77943 1486 ft 7 kts 263°
2026-05-07 19:11 48.35339 11.77927 1490 ft 0 kts 264°
2026-05-07 19:11 48.35339 11.77925 1490 ft 1 kts 264°
2026-05-07 19:12 48.35336 11.77882 1490 ft 5 kts 264°
2026-05-07 19:12 48.35325 11.77824 1479 ft 8 kts 240°
2026-05-07 19:12 48.35274 11.77796 1481 ft 9 kts 178°
2026-05-07 19:12 48.35191 11.77810 1485 ft 16 kts 173°
2026-05-07 19:13 48.35068 11.77833 1476 ft 18 kts 174°
2026-05-07 19:13 48.34952 11.77851 1477 ft 16 kts 174°
2026-05-07 19:13 48.34844 11.77870 1478 ft 15 kts 173°
2026-05-07 19:13 48.34747 11.77887 1477 ft 13 kts 173°
2026-05-07 19:14 48.34675 11.77925 1478 ft 11 kts 120°
2026-05-07 19:14 48.34674 11.78038 1490 ft 11 kts 84°
2026-05-07 19:14 48.34685 11.78172 1480 ft 18 kts 83°
2026-05-07 19:14 48.34703 11.78406 1482 ft 24 kts 83°
2026-05-07 19:15 48.34722 11.78659 1479 ft 24 kts 83°
2026-05-07 19:15 48.34742 11.78912 1486 ft 24 kts 84°
2026-05-07 19:15 48.34760 11.79154 1490 ft 21 kts 84°
2026-05-07 19:15 48.34776 11.79364 1483 ft 19 kts 83°
2026-05-07 19:16 48.34791 11.79557 1484 ft 17 kts 83°
2026-05-07 19:16 48.34805 11.79729 1487 ft 17 kts 83°
2026-05-07 19:16 48.34819 11.79905 1490 ft 17 kts 83°
2026-05-07 19:16 48.34832 11.80076 1487 ft 17 kts 83°
2026-05-07 19:17 48.34844 11.80246 1484 ft 15 kts 90°
2026-05-07 19:17 48.34806 11.80359 1475 ft 12 kts 143°
2026-05-07 19:17 48.34730 11.80396 1478 ft 12 kts 169°
2026-05-07 19:17 48.34650 11.80413 1486 ft 12 kts 173°
2026-05-07 19:18 48.34571 11.80413 1480 ft 12 kts 193°
2026-05-07 19:18 48.34500 11.80358 1482 ft 12 kts 220°
2026-05-07 19:18 48.34460 11.80187 1486 ft 30 kts 263°
2026-05-07 19:18 48.34410 11.79549 1480 ft 97 kts 263°
2026-05-07 19:19 48.34307 11.78204 1479 ft 160 kts 263°
2026-05-07 19:19 48.34154 11.76285 1527 ft 203 kts 264°
2026-05-07 19:19 48.33976 11.74158 2003 ft 209 kts 264°
2026-05-07 19:19 48.33741 11.72007 2635 ft 211 kts 250°
2026-05-07 19:20 48.32832 11.70284 3168 ft 213 kts 206°
2026-05-07 19:20 48.31401 11.69947 3748 ft 213 kts 171°
2026-05-07 19:20 48.29964 11.70354 4309 ft 213 kts 171°
2026-05-07 19:20 48.28466 11.70860 4543 ft 231 kts 157°
2026-05-07 19:21 48.27090 11.72254 4746 ft 249 kts 142°
2026-05-07 19:21 48.25690 11.73902 5086 ft 263 kts 145°
2026-05-07 19:21 48.24167 11.75498 5628 ft 270 kts 147°
2026-05-07 19:21 48.22603 11.77086 6261 ft 276 kts 148°
2026-05-07 19:22 48.20965 11.78709 6750 ft 286 kts 148°
2026-05-07 19:22 48.19301 11.80370 6938 ft 289 kts 148°
2026-05-07 19:22 48.17699 11.82107 7075 ft 282 kts 139°
2026-05-07 19:22 48.16372 11.84294 7076 ft 285 kts 130°
2026-05-07 19:23 48.15142 11.86642 7256 ft 287 kts 129°
2026-05-07 19:23 48.13890 11.88973 7925 ft 288 kts 136°
2026-05-07 19:23 48.12424 11.91035 8569 ft 290 kts 142°
2026-05-07 19:23 48.10871 11.92984 9248 ft 293 kts 143°
2026-05-07 19:24 48.09318 11.94920 9918 ft 297 kts 143°
2026-05-07 19:24 48.07718 11.96937 10452 ft 305 kts 143°
2026-05-07 19:24 48.06048 11.99064 10636 ft 326 kts 142°
2026-05-07 19:24 48.04268 12.01353 10806 ft 348 kts 142°
2026-05-07 19:25 48.02384 12.03794 10978 ft 370 kts 141°
2026-05-07 19:25 48.00407 12.06369 11417 ft 381 kts 141°
2026-05-07 19:25 47.98391 12.09002 12034 ft 388 kts 141°
2026-05-07 19:25 47.96346 12.11668 12760 ft 392 kts 141°
2026-05-07 19:26 47.94280 12.14353 13555 ft 395 kts 141°
2026-05-07 19:26 47.92191 12.17048 14254 ft 399 kts 142°
2026-05-07 19:26 47.90056 12.19744 14868 ft 404 kts 142°
2026-05-07 19:26 47.87888 12.22459 15477 ft 409 kts 142°
2026-05-07 19:27 47.86442 12.24268 15898 ft 413 kts 142°
2026-05-07 19:27 47.84231 12.27035 16527 ft 417 kts 142°
2026-05-07 19:27 47.81235 12.30789 17380 ft 424 kts 142°
2026-05-07 19:27 47.78994 12.33598 17999 ft 429 kts 142°
2026-05-07 19:28 47.76702 12.36470 18580 ft 433 kts 141°
2026-05-07 19:28 47.74392 12.39360 19274 ft 434 kts 141°
2026-05-07 19:28 47.72075 12.42252 19906 ft 436 kts 141°
2026-05-07 19:28 47.70499 12.44209 20313 ft 439 kts 142°
2026-05-07 19:29 47.68138 12.47114 20869 ft 443 kts 142°
2026-05-07 19:29 47.65757 12.50029 21434 ft 446 kts 142°
2026-05-07 19:29 47.63347 12.52956 22012 ft 449 kts 144°
2026-05-07 19:29 47.60824 12.55591 22564 ft 450 kts 150°
2026-05-07 19:30 47.58106 12.57946 23134 ft 453 kts 152°
2026-05-07 19:30 47.55370 12.60280 23684 ft 456 kts 152°
2026-05-07 19:30 47.52614 12.62637 24146 ft 460 kts 152°
2026-05-07 19:30 47.49829 12.65029 24546 ft 464 kts 152°
2026-05-07 19:31 47.47031 12.67440 25006 ft 467 kts 152°
2026-05-07 19:31 47.44220 12.69869 25479 ft 469 kts 152°
2026-05-07 19:31 47.41393 12.72316 25938 ft 472 kts 152°
2026-05-07 19:31 47.38554 12.74772 26337 ft 475 kts 152°
2026-05-07 19:32 47.35692 12.77246 26764 ft 478 kts 152°
2026-05-07 19:32 47.32814 12.79728 27141 ft 481 kts 152°
2026-05-07 19:32 47.29914 12.82227 27545 ft 483 kts 152°
2026-05-07 19:32 47.27002 12.84734 27898 ft 487 kts 153°
2026-05-07 19:33 47.24059 12.87263 28232 ft 491 kts 153°
2026-05-07 19:33 47.21106 12.89798 28608 ft 493 kts 153°
2026-05-07 19:33 47.18167 12.92316 28935 ft 495 kts 153°
2026-05-07 19:33 47.15182 12.94873 29265 ft 497 kts 153°
2026-05-07 19:34 47.12193 12.97433 29636 ft 498 kts 153°
2026-05-07 19:34 47.09200 12.99986 30065 ft 498 kts 153°
2026-05-07 19:34 47.06203 13.02540 30506 ft 496 kts 153°
2026-05-07 19:34 47.03209 13.05088 30734 ft 499 kts 154°
2026-05-07 19:35 47.00189 13.07654 30973 ft 502 kts 154°
2026-05-07 19:35 46.97174 13.10215 31378 ft 500 kts 154°
2026-05-07 19:35 46.94167 13.12768 31764 ft 498 kts 155°
2026-05-07 19:35 46.91168 13.15308 32119 ft 498 kts 155°
2026-05-07 19:36 46.88170 13.17847 32423 ft 498 kts 155°
2026-05-07 19:36 46.85171 13.20381 32766 ft 498 kts 155°
2026-05-07 19:36 46.82169 13.22913 32973 ft 499 kts 155°
2026-05-07 19:36 46.79150 13.25450 33059 ft 501 kts 155°
2026-05-07 19:37 46.73244 13.30433 33044 ft 481 kts 156°
2026-05-07 19:37 46.67455 13.35290 33050 ft 478 kts 156°
2026-05-07 19:38 46.61686 13.40108 33021 ft 478 kts 156°
2026-05-07 19:38 46.55931 13.44909 33041 ft 476 kts 156°
2026-05-07 19:39 46.50187 13.49692 33054 ft 476 kts 156°
2026-05-07 19:39 46.44411 13.54486 33050 ft 480 kts 156°
2026-05-07 19:40 46.38596 13.59305 33039 ft 482 kts 156°
2026-05-07 19:40 46.32801 13.64099 33033 ft 482 kts 156°
2026-05-07 19:41 46.26987 13.68898 33043 ft 480 kts 157°
2026-05-07 19:41 46.21354 13.74075 33046 ft 484 kts 148°
2026-05-07 19:42 46.16080 13.80119 33036 ft 484 kts 148°
2026-05-07 19:42 46.10817 13.86152 33016 ft 482 kts 148°
2026-05-07 19:43 46.05554 13.92119 33046 ft 481 kts 148°
2026-05-07 19:43 46.00274 13.98057 33049 ft 481 kts 148°
2026-05-07 19:44 45.95001 14.03972 33029 ft 481 kts 148°
2026-05-07 19:44 45.89758 14.09836 33041 ft 481 kts 148°
2026-05-07 19:45 45.84476 14.15733 33042 ft 481 kts 148°
2026-05-07 19:45 45.79189 14.21622 33035 ft 481 kts 148°
2026-05-07 19:46 45.73902 14.27496 33035 ft 482 kts 148°
2026-05-07 19:46 45.68601 14.33373 33043 ft 481 kts 148°
2026-05-07 19:47 45.63301 14.39233 33031 ft 481 kts 148°
2026-05-07 19:47 45.58008 14.45070 33048 ft 480 kts 148°
2026-05-07 19:48 45.52754 14.50852 33036 ft 479 kts 149°
2026-05-07 19:48 45.47475 14.56644 33045 ft 478 kts 148°
2026-05-07 19:49 45.42204 14.62417 33029 ft 478 kts 149°
2026-05-07 19:49 45.36941 14.68165 33045 ft 477 kts 149°
2026-05-07 19:50 45.31674 14.73903 33049 ft 476 kts 149°
2026-05-07 19:50 45.26409 14.79625 33057 ft 477 kts 149°
2026-05-07 19:51 45.21131 14.85348 33044 ft 477 kts 149°
2026-05-07 19:51 45.15854 14.91057 33040 ft 478 kts 149°
2026-05-07 19:52 45.10566 14.96767 33047 ft 477 kts 149°
2026-05-07 19:52 45.05307 15.02424 33041 ft 478 kts 149°
2026-05-07 19:53 45.00008 15.08116 33041 ft 479 kts 149°
2026-05-07 19:53 44.94705 15.13799 33053 ft 479 kts 149°
2026-05-07 19:54 44.89378 15.19494 33061 ft 480 kts 149°
2026-05-07 19:54 44.84050 15.25178 33055 ft 480 kts 149°
2026-05-07 19:55 44.78752 15.30814 33058 ft 480 kts 149°
2026-05-07 19:55 44.73424 15.36470 33045 ft 479 kts 149°
2026-05-07 19:56 44.68117 15.42093 33053 ft 477 kts 150°
2026-05-07 19:56 44.62812 15.47699 33065 ft 477 kts 150°
2026-05-07 19:57 44.57512 15.53307 33068 ft 478 kts 148°
2026-05-07 19:57 44.52478 15.59469 33072 ft 482 kts 144°
2026-05-07 19:58 44.47487 15.65747 33041 ft 482 kts 144°
2026-05-07 19:58 44.42520 15.71957 33083 ft 482 kts 145°
2026-05-07 19:59 44.37499 15.78191 33059 ft 483 kts 145°
2026-05-07 19:59 44.32469 15.84419 33078 ft 483 kts 145°
2026-05-07 20:00 44.27426 15.90646 33081 ft 483 kts 145°
2026-05-07 20:00 44.22419 15.96813 33071 ft 484 kts 146°
2026-05-07 20:01 44.17370 16.03016 33067 ft 484 kts 146°
2026-05-07 20:01 44.12313 16.09216 33078 ft 484 kts 146°
2026-05-07 20:02 44.07241 16.15421 33054 ft 485 kts 146°
2026-05-07 20:02 44.02176 16.21602 33041 ft 485 kts 146°
2026-05-07 20:03 43.97106 16.27774 33062 ft 484 kts 147°
2026-05-07 20:03 43.92028 16.33939 33077 ft 485 kts 147°
2026-05-07 20:04 43.86979 16.40056 33066 ft 485 kts 146°
2026-05-07 20:04 43.81904 16.46194 33071 ft 483 kts 146°
2026-05-07 20:05 43.76856 16.52283 33071 ft 482 kts 147°
2026-05-07 20:05 43.71799 16.58366 33082 ft 483 kts 147°
2026-05-07 20:06 43.66722 16.64457 33093 ft 483 kts 147°
2026-05-07 20:06 43.61639 16.70544 33079 ft 484 kts 147°
2026-05-07 20:07 43.56542 16.76636 33086 ft 485 kts 147°
2026-05-07 20:07 43.51461 16.82692 33089 ft 486 kts 147°
2026-05-07 20:08 43.46337 16.88786 33085 ft 487 kts 147°
2026-05-07 20:08 43.41208 16.94871 33090 ft 486 kts 147°
2026-05-07 20:09 43.36080 17.00943 33074 ft 487 kts 147°
2026-05-07 20:10 43.28296 17.10126 33087 ft 493 kts 146°
2026-05-07 20:10 43.23153 17.16186 33085 ft 489 kts 146°